Flag for Germany Weather past 2 weeks in Prenzlau, Brandenburg, Germany

Now
48 °F

Scattered clouds.


Feels Like: 48 °F
Forecast: 41 / 67 °F
Wind: 2 mph from North

Location: Szczecin Airport

Current Time: May 30, 2015 at 9:38:37 PM

Latest Report: May 30, 2015 at 9:00 PM


Visibility: N/A

Pressure: 29.92 "Hg

Humidity: 87%

Dew point: 45 °F

Location of PrenzlauLocation

Historic Weather in Prenzlau — Graph

°F

Prenzlau temperature yesterday

Maximum temperature yesterday: 61 °F (at 3:00 PM)
Minimum temperature yesterday: 45 °F (at 5:00 AM)
Average temperature yesterday: 54 °F

Past Weeks' High & Low Weather Summary

 TemperatureHumidityPressure
High68 °F (May 24, 6:30 PM)100% (May 16, 4:00 AM)30.30 "Hg (May 16, 4:00 AM)
Low36 °F (May 24, 4:30 AM)37% (May 19, 6:00 PM)29.56 "Hg (May 19, 4:30 AM)
Average53 °F71%29.98 "Hg
* Reported May 15 8:00 PM — May 30 8:00 PM, Prenzlau, Weather by CustomWeather, © 2015

Note: Actual official high and low records may vary slightly from our data, if they occured in-between our weather recording intervals... More about our weather records

Advertising

Prenzlau weather history for previous 24 hours

 ConditionsComfort  
Time TempWeatherWind HumidityBarometerVisibility
8:00 PM
Sat, May 30
50 °FSprinkles. Scattered clouds.7 mph82%29.89 "HgN/A
7:30 PM52 °FSprinkles. Partly sunny.3 mph77%29.89 "HgN/A
7:00 PM54 °FPassing clouds.2 mph72%29.86 "HgN/A
6:30 PM52 °FPassing clouds.2 mph77%29.86 "HgN/A
6:00 PM50 °FPassing clouds.2 mph88%29.86 "HgN/A
5:30 PM46 °FSprinkles. Partly sunny.9 mph93%29.89 "HgN/A
5:00 PM54 °FPartly sunny.6 mph67%29.86 "HgN/A
4:30 PM52 °FSprinkles. Partly sunny.5 mph82%29.83 "HgN/A
4:00 PM52 °FPartly sunny.5 mph77%29.86 "HgN/A
3:30 PM54 °FScattered clouds.15 mph67%29.83 "HgN/A
3:00 PM57 °FScattered clouds.12 mph51%29.80 "HgN/A
2:30 PM59 °FScattered clouds.14 mph51%29.80 "HgN/A
2:00 PM59 °FScattered clouds.16 mph51%29.80 "HgN/A
1:30 PM57 °FScattered clouds.16 mph55%29.80 "HgN/A
1:00 PM55 °FScattered clouds.15 mph63%29.80 "HgN/A
12:30 PM54 °FScattered clouds.14 mph67%29.80 "HgN/A
12:00 PM54 °FScattered clouds.10 mph72%29.77 "HgN/A
11:30 AM54 °FScattered clouds.13 mph72%29.77 "HgN/A
11:00 AM52 °FBroken clouds.12 mph77%29.77 "HgN/A
10:30 AM52 °FBroken clouds.14 mph82%29.77 "HgN/A
10:00 AM50 °FBroken clouds.10 mph88%29.74 "HgN/A
9:30 AM50 °FBroken clouds.10 mph94%29.74 "HgN/A
9:00 AM48 °FLight rain. Broken clouds.6 mph94%29.74 "HgN/A
8:30 AM48 °FLight rain. Broken clouds.13 mph94%29.74 "Hg5 mi
8:00 AM52 °FBroken clouds.12 mph77%29.71 "HgN/A
7:30 AM54 °FLight rain. Partly sunny.14 mph82%29.68 "HgN/A
7:00 AM55 °FSunny.9 mph77%29.68 "Hg10 mi
6:30 AM54 °FSunny.7 mph82%29.68 "Hg10 mi
6:00 AM54 °FSunny.3 mph82%29.65 "Hg10 mi
5:30 AM54 °FClear.3 mph88%29.65 "Hg10 mi
5:00 AM52 °FClear.3 mph88%29.65 "Hg10 mi
4:30 AM54 °FClear.3 mph82%29.65 "Hg10 mi
4:00 AM54 °FClear.5 mph82%29.68 "Hg10 mi
3:30 AM54 °FClear.3 mph82%29.68 "Hg10 mi
3:00 AM54 °FClear.6 mph77%29.68 "Hg10 mi
2:30 AM54 °FClear.5 mph77%29.68 "Hg10 mi
2:00 AM55 °FClear.5 mph72%29.68 "Hg10 mi
1:30 AM54 °FClear.3 mph77%29.68 "Hg10 mi
1:00 AM54 °FClear.5 mph77%29.68 "Hg10 mi
12:30 AM55 °FClear.5 mph77%29.71 "Hg10 mi
12:00 AM55 °FClear.5 mph77%29.71 "Hg10 mi
11:30 PM
Fri, May 29
55 °FClear.7 mph77%29.71 "Hg10 mi
10:30 PM55 °FSprinkles. Passing clouds.12 mph77%29.74 "HgN/A
10:00 PM57 °FSunny.8 mph63%29.74 "Hg10 mi
9:30 PM59 °FSunny.10 mph59%29.74 "Hg10 mi
9:00 PM59 °FPassing clouds.6 mph59%29.77 "HgN/A
Weather by CustomWeather, © 2015

See weather overviewHow to use our weather pages